Total_Precipitation_Accumulation
0.00 0.00 0.00 0.00 0.00 0.00 0.00 0.00 0.01 0.02 0.05 0.07 0.15 0.17 0.15 0.19 0.41 0.76 0.68 1.22 2.37 1.63 0.97 0.87 0.94 0.30 0.22 0.19 0.12 0.06 0.02 0.01 0.02 0.01 0.00 0.00 0.00 0.00 0.01 0.01 0.00 0.02 0.13 0.06 0.02 0.01 0.03 0.03 0.01
0.00 0.00 0.00 0.00 0.00 0.00 0.00 0.02 0.01 0.06 0.20 0.31 0.32 0.34 0.31 0.36 0.28 0.48 0.66 0.56 0.56 0.41 0.57 0.75 1.19 0.97 0.80 0.62 0.22 0.12 0.08 0.05 0.01 0.02 0.01 0.01 0.01 0.01 0.02 0.01 0.01 0.05 0.11 0.04 0.02 0.04 0.02 0.01 0.00
0.00 0.00 0.00 0.00 0.00 0.00 0.00 0.02 0.02 0.06 0.16 0.17 0.15 0.13 0.26 0.42 0.69 0.83 0.68 0.55 0.58 0.35 0.31 0.76 1.18 1.33 0.83 0.99 0.67 0.43 0.38 0.15 0.07 0.12 0.05 0.02 0.01 0.02 0.04 0.02 0.02 0.08 0.12 0.04 0.04 0.04 0.02 0.00 0.00
0.00 0.00 0.00 0.00 0.00 0.00 0.00 0.02 0.04 0.15 0.14 0.09 0.12 0.20 0.54 0.52 0.96 0.72 0.65 0.83 1.04 1.14 0.91 1.64 2.05 1.48 1.03 0.94 1.15 2.03 1.84 1.25 0.95 0.61 0.38 0.17 0.07 0.02 0.03 0.03 0.04 0.10 0.13 0.06 0.05 0.02 0.02 0.00 0.00
0.00 0.00 0.00 0.00 0.00 0.00 0.01 0.06 0.17 0.20 0.22 0.28 0.12 0.30 0.91 0.46 0.41 0.62 1.19 2.26 3.14 2.76 2.23 2.19 3.00 2.30 1.62 1.11 1.35 2.01 3.37 3.87 3.31 2.24 1.16 0.96 0.72 0.37 0.11 0.03 0.04 0.12 0.15 0.07 0.02 0.02 0.00 0.00 0.00
0.00 0.00 0.00 0.00 0.00 0.00 0.01 0.11 0.30 0.40 0.25 0.32 0.12 0.38 0.91 0.39 0.47 0.72 1.82 2.34 4.04 5.81 6.52 4.51 4.60 5.14 3.94 2.53 1.23 1.44 2.01 3.19 3.21 3.22 2.85 2.45 1.92 1.05 0.55 0.16 0.06 0.07 0.08 0.01 0.01 0.00 0.00 0.00 0.00
0.00 0.00 0.00 0.00 0.00 0.01 0.04 0.13 0.21 0.23 0.19 0.33 0.20 0.49 1.07 0.45 0.44 0.96 1.82 4.35 6.04 6.86 10.03 10.33 6.89 6.24 5.55 6.18 3.88 1.55 1.47 1.57 1.93 1.92 1.88 2.34 2.41 1.33 0.89 0.43 0.19 0.06 0.08 0.01 0.00 0.00 0.00 0.00 0.00
0.00 0.00 0.00 0.00 0.01 0.04 0.08 0.21 0.27 0.14 0.28 0.50 0.20 0.35 1.12 0.58 0.43 0.50 0.85 2.20 6.16 7.50 6.57 6.82 5.47 4.74 4.34 4.46 5.04 3.39 2.15 1.72 1.54 1.41 1.25 1.31 1.90 1.88 1.23 0.47 0.25 0.11 0.03 0.00 0.00 0.00 0.00 0.00 0.00
0.00 0.00 0.00 0.00 0.04 0.12 0.13 0.12 0.09 0.04 0.06 0.24 0.35 0.31 0.37 0.30 0.27 0.29 0.96 1.02 1.92 3.50 3.96 3.54 2.44 1.70 1.94 2.04 2.48 3.03 2.92 2.35 2.38 2.56 1.68 1.22 1.15 1.71 1.26 0.74 0.28 0.07 0.03 0.00 0.00 0.00 0.00 0.00 0.00
0.00 0.00 0.00 0.00 0.02 0.28 0.21 0.26 0.23 0.04 0.07 0.42 0.52 0.57 0.44 0.30 0.28 0.25 0.62 0.77 1.65 2.08 1.80 1.28 0.80 0.43 0.47 0.60 0.75 1.23 1.99 2.35 2.08 3.39 2.23 1.82 0.99 1.10 0.91 0.87 0.36 0.03 0.00 0.00 0.00 0.00 0.00 0.00 0.00
0.00 0.00 0.00 0.00 0.00 0.05 0.09 0.01 0.01 0.04 0.10 0.25 0.36 0.32 0.16 0.20 0.14 0.19 0.33 0.66 1.12 0.85 0.81 0.74 0.52 0.30 0.33 0.26 0.30 0.46 1.09 1.92 2.15 2.27 2.06 2.06 1.09 1.21 0.84 0.85 0.50 0.04 0.00 0.00 0.00 0.00 0.00 0.00 0.00
0.00 0.00 0.00 0.00 0.01 0.00 0.00 0.01 0.00 0.06 0.54 0.42 0.08 0.21 0.13 0.12 0.17 0.24 0.31 0.39 0.48 0.45 0.47 0.32 0.35 0.36 0.51 0.36 0.25 0.29 0.70 1.49 1.70 1.32 1.09 1.43 0.90 0.77 0.52 0.45 0.41 0.03 0.00 0.00 0.00 0.00 0.00 0.00 0.00
0.00 0.00 0.00 0.00 0.02 0.02 0.01 0.01 0.02 0.40 0.85 0.25 0.22 0.18 0.11 0.12 0.16 0.13 0.11 0.17 0.21 0.30 0.41 0.39 0.18 0.25 0.23 0.23 0.24 0.22 0.57 0.80 1.09 0.96 0.37 0.78 0.39 0.21 0.21 0.29 0.30 0.06 0.00 0.00 0.00 0.00 0.00 0.00 0.00
0.00 0.00 0.00 0.02 0.01 0.02 0.01 0.02 0.18 0.31 0.29 0.38 0.32 0.19 0.14 0.09 0.09 0.08 0.04 0.03 0.11 0.26 0.39 0.47 0.41 0.35 0.30 0.23 0.31 0.30 0.45 0.80 0.72 0.88 0.36 0.22 0.21 0.21 0.18 0.22 0.18 0.04 0.00 0.00 0.00 0.00 0.00 0.00 0.00
0.00 0.01 0.01 0.04 0.02 0.01 0.02 0.10 0.20 0.47 0.35 0.20 0.23 0.21 0.21 0.18 0.09 0.04 0.02 0.01 0.02 0.07 0.22 0.62 1.02 0.50 0.34 0.28 0.31 0.34 0.25 0.43 0.66 0.77 0.53 0.21 0.10 0.15 0.11 0.20 0.14 0.03 0.00 0.00 0.00 0.00 0.00 0.00 0.00
0.00 0.00 0.02 0.16 0.03 0.01 0.01 0.20 0.34 0.14 0.15 0.41 0.12 0.15 0.20 0.12 0.04 0.00 0.00 0.00 0.01 0.04 0.12 0.66 1.27 0.93 0.48 0.27 0.32 0.37 0.47 0.43 0.52 0.59 0.53 0.28 0.19 0.16 0.13 0.19 0.21 0.09 0.01 0.00 0.00 0.00 0.00 0.00 0.00
0.00 0.00 0.00 0.01 0.01 0.01 0.01 0.02 0.15 0.11 0.10 0.26 0.08 0.05 0.02 0.02 0.01 0.00 0.00 0.00 0.03 0.04 0.17 0.50 0.80 1.08 0.97 0.76 0.71 0.56 0.47 0.52 0.48 0.37 0.41 0.27 0.22 0.23 0.13 0.21 0.18 0.19 0.07 0.01 0.00 0.00 0.00 0.00 0.00
0.00 0.00 0.00 0.02 0.01 0.00 0.00 0.00 0.01 0.11 0.12 0.09 0.05 0.01 0.01 0.00 0.00 0.00 0.03 0.04 0.06 0.08 0.32 0.58 0.72 1.21 1.58 0.87 0.35 0.41 0.64 0.53 0.47 0.29 0.28 0.35 0.24 0.34 0.27 0.23 0.14 0.09 0.05 0.01 0.00 0.00 0.00 0.00 0.00
0.00 0.00 0.00 0.00 0.01 0.00 0.00 0.00 0.00 0.04 0.15 0.07 0.03 0.01 0.01 0.01 0.00 0.02 0.05 0.06 0.08 0.18 0.42 0.64 1.00 0.97 0.47 0.23 0.14 0.26 0.46 0.59 0.52 0.38 0.27 0.32 0.32 0.36 0.48 0.47 0.37 0.13 0.03 0.01 0.01 0.01 0.00 0.00 0.00
0.00 0.00 0.00 0.00 0.00 0.00 0.00 0.00 0.00 0.00 0.02 0.00 0.00 0.01 0.00 0.01 0.00 0.01 0.04 0.10 0.29 0.44 0.44 0.33 0.15 0.13 0.04 0.06 0.08 0.11 0.20 0.41 0.40 0.34 0.17 0.30 0.32 0.43 0.34 0.33 0.52 0.30 0.12 0.02 0.02 0.02 0.02 0.03 0.02
0.00 0.00 0.00 0.00 0.00 0.01 0.01 0.00 0.00 0.00 0.00 0.00 0.01 0.03 0.01 0.01 0.01 0.04 0.08 0.13 0.11 0.05 0.02 0.06 0.08 0.14 0.05 0.04 0.05 0.09 0.27 0.42 0.33 0.38 0.23 0.21 0.25 0.34 0.35 0.39 0.40 0.24 0.11 0.05 0.02 0.01 0.00 0.01 0.03
0.00 0.00 0.00 0.01 0.03 0.04 0.00 0.01 0.01 0.00 0.00 0.00 0.01 0.02 0.02 0.02 0.03 0.03 0.00 0.00 0.01 0.02 0.03 0.06 0.12 0.15 0.05 0.02 0.02 0.04 0.13 0.23 0.24 0.21 0.17 0.13 0.18 0.25 0.29 0.35 0.39 0.32 0.19 0.15 0.09 0.05 0.04 0.07 0.11
0.00 0.00 0.04 0.04 0.01 0.02 0.01 0.04 0.02 0.01 0.00 0.00 0.00 0.00 0.03 0.01 0.00 0.00 0.01 0.00 0.00 0.04 0.07 0.08 0.12 0.16 0.08 0.02 0.07 0.14 0.16 0.19 0.23 0.19 0.14 0.10 0.10 0.14 0.17 0.20 0.20 0.16 0.12 0.11 0.13 0.14 0.20 0.28 0.36
0.07 0.03 0.07 0.04 0.04 0.06 0.01 0.04 0.02 0.02 0.01 0.02 0.00 0.00 0.09 0.02 0.01 0.02 0.02 0.01 0.01 0.05 0.08 0.10 0.13 0.19 0.10 0.07 0.08 0.14 0.18 0.16 0.15 0.11 0.10 0.06 0.07 0.10 0.10 0.08 0.07 0.08 0.11 0.14 0.25 0.48 0.44 0.39 0.48
0.08 0.17 0.31 0.34 0.15 0.07 0.03 0.03 0.01 0.01 0.01 0.08 0.04 0.00 0.00 0.00 0.01 0.03 0.02 0.01 0.02 0.04 0.08 0.08 0.07 0.10 0.10 0.13 0.07 0.06 0.13 0.16 0.16 0.13 0.17 0.12 0.07 0.06 0.15 0.22 0.20 0.16 0.19 0.35 0.43 0.47 0.42 0.46 0.52
0.06 0.18 0.20 0.22 0.17 0.07 0.03 0.01 0.00 0.00 0.00 0.00 0.01 0.00 0.00 0.00 0.00 0.01 0.01 0.02 0.03 0.07 0.18 0.12 0.11 0.11 0.07 0.11 0.17 0.21 0.26 0.31 0.37 0.36 0.31 0.19 0.21 0.24 0.39 0.53 0.56 0.47 0.37 0.37 0.48 0.59 0.57 0.60 0.52
0.09 0.11 0.06 0.21 0.10 0.08 0.01 0.01 0.00 0.00 0.00 0.00 0.00 0.00 0.00 0.00 0.00 0.00 0.01 0.02 0.03 0.03 0.16 0.20 0.13 0.12 0.08 0.11 0.16 0.25 0.38 0.40 0.31 0.35 0.58 0.42 0.37 0.28 0.39 0.50 0.40 0.40 0.37 0.40 0.56 0.62 0.47 0.39 0.40
0.05 0.15 0.15 0.27 0.14 0.12 0.00 0.01 0.02 0.02 0.01 0.00 0.00 0.00 0.00 0.00 0.00 0.00 0.00 0.00 0.01 0.02 0.11 0.16 0.10 0.11 0.10 0.08 0.10 0.15 0.27 0.41 0.48 0.80 1.10 1.22 0.99 0.77 0.49 0.53 0.52 0.39 0.25 0.24 0.26 0.30 0.31 0.31 0.29
0.03 0.23 0.20 0.09 0.02 0.14 0.08 0.09 0.03 0.02 0.01 0.00 0.00 0.00 0.00 0.00 0.00 0.00 0.00 0.01 0.00 0.01 0.05 0.13 0.23 0.23 0.09 0.10 0.20 0.33 0.40 0.58 0.92 0.88 1.17 0.94 0.90 0.96 0.82 0.62 0.63 0.56 0.50 0.46 0.40 0.33 0.27 0.24 0.20
0.03 0.05 0.15 0.22 0.11 0.06 0.16 0.13 0.09 0.01 0.00 0.00 0.00 0.00 0.00 0.00 0.00 0.00 0.00 0.01 0.00 0.00 0.01 0.07 0.29 0.53 0.73 0.69 1.01 0.92 1.05 1.21 1.11 1.38 1.94 1.33 0.98 0.72 0.50 0.36 0.28 0.29 0.34 0.37 0.30 0.24 0.19 0.18 0.18